Home   Weather   Radom   Past weeks

Flag for Poland Past Weather in Radom, Poland — Yesterday and Last 2 Weeks

Now
27 °F

Fog.


Feels Like: 22 °F
Forecast: 19 / 28 °F
Wind: 5 mph from North

Location: Kielce

Current Time: Jan 21, 2018 at 11:10:49 pm

Latest Report: Jan 21, 2018 at 10:00 pm


Visibility: 2 mi

Pressure: 30.06 "Hg

Humidity: 93%

Dew Point: 25 °F

Location of RadomLocation

Past Weather in Radom — Graph

°F

Radom Temperature Yesterday

Maximum temperature yesterday: 34 °F (at 3:00 pm)
Minimum temperature yesterday: 22 °F (at 8:00 am)
Average temperature yesterday: 28 °F

High & Low Weather Summary for the Past Weeks

 TemperatureHumidityPressure
High44 °F (Jan 7, 6:00 am)100% (Jan 6, 9:00 pm)30.66 "Hg (Jan 6, 9:00 pm)
Low15 °F (Jan 16, 3:00 am)42% (Jan 9, 1:00 pm)29.29 "Hg (Jan 18, 9:00 pm)
Average30 °F83%30.10 "Hg
* Reported Jan 6 9:00 pm — Jan 21 9:00 pm, Radom. Weather by CustomWeather, © 2018

Note: Actual official high and low records may vary slightly from our data, if they occured in-between our weather recording intervals... More about our weather records

Advertising

Radom Weather History for the Previous 24 Hours

Scroll right to see more
 ConditionsComfort  
Time TempWeatherWind HumidityBarometerVisibility
9:00 pm
Sun, Jan 21
27 °FFog.5 mph90%30.04 "Hg3 mi
8:00 pm28 °FLow clouds.5 mph90%30.02 "Hg3 mi
7:00 pm28 °FLight snow. Low clouds.5 mph93%30.00 "Hg1 mi
6:00 pm29 °FLight snow. Low clouds.6 mph92%29.97 "Hg2 mi
5:00 pm29 °FLight snow. Low clouds.5 mph91%29.93 "Hg2 mi
4:00 pm30 °FSnow flurries. Low clouds.5 mph89%29.91 "Hg2 mi
3:00 pm31 °FLight snow. Low clouds.3 mph87%29.88 "Hg4 mi
2:00 pm31 °FLight snow. Low clouds.3 mph86%29.85 "Hg4 mi
1:00 pm31 °FLight snow. Overcast.5 mph85%29.83 "Hg2 mi
12:00 pm31 °FFog.3 mph88%29.82 "Hg2 mi
11:00 am29 °FFog.3 mph97%29.82 "Hg2 mi
10:00 am28 °FFog.2 mph96%29.81 "Hg2 mi
9:00 am26 °FFog.1 mph96%29.79 "Hg3 mi
8:00 am24 °FFog.1 mph95%29.78 "Hg2 mi
7:00 am24 °FFog.1 mph96%29.78 "Hg1 mi
6:00 am25 °FFog.2 mph96%29.76 "Hg1 mi
5:00 am24 °FFog.1 mph96%29.76 "Hg0 mi
4:00 am25 °FFog.1 mph96%29.75 "Hg1 mi
3:00 am26 °FFog.1 mph97%29.75 "Hg1 mi
2:00 am26 °FFog.1 mph97%29.76 "Hg0 mi
1:00 am27 °FFog.1 mph96%29.76 "Hg0 mi
12:00 am29 °FOvercast.1 mph96%29.76 "Hg1 mi
11:00 pm
Sat, Jan 20
29 °FFog.1 mph96%29.77 "Hg1 mi
Weather by CustomWeather, © 2018

See weather overview